EW9496 Weather Reports


time (UTC)temp
F
wind
direction
speed
knots
gust
knots
rain 1hr
in
rain 24hr
in
rain mn
in
humidity
%
barometer
mb
20240518203102 74 360 0.0 0.0 0.00 0.19 0.19 67 1010.3
20240518201600 74 360 0.0 0.0 0.00 0.19 0.19 67 1010.4
20240518200102 74 360 1.7 3.5 0.00 0.19 0.19 66 1010.3
20240518194557 75 360 0.9 2.6 0.00 0.19 0.19 66 1010.4
20240518193113 75 360 0.0 2.6 0.00 0.19 0.19 67 1010.4
20240518191554 74 360 2.6 4.3 0.00 0.19 0.19 66 1010.4
20240518190107 74 360 1.7 3.5 0.00 0.19 0.19 66 1011.1
20240518184610 74 360 0.9 4.3 0.00 0.19 0.19 66 1011.0
20240518183051 74 360 1.7 7.0 0.00 0.19 0.19 66 1011.0
20240518181547 74 360 2.6 7.0 0.00 0.19 0.19 67 1010.9
20240518180044 73 360 5.2 8.7 0.00 0.19 0.19 67 1010.6
20240518174541 73 360 6.1 9.6 0.00 0.19 0.19 67 1010.8
20240518173038 73 360 7.0 11.3 0.00 0.19 0.19 68 1011.1
20240518171535 72 360 6.1 10.4 0.00 0.19 0.19 67 1011.4
20240518170031 71 360 7.0 11.3 0.00 0.19 0.19 69 1012.0
20240518164531 70 360 7.8 13.0 0.00 0.19 0.19 69 1012.0
20240518163028 70 360 7.8 12.2 0.00 0.19 0.19 69 1012.1
20240518161528 69 360 4.3 11.3 0.00 0.19 0.19 70 1012.1
20240518160027 70 360 6.1 13.0 0.00 0.19 0.19 70 1011.9
20240518154529 70 360 7.0 12.2 0.00 0.19 0.19 72 1012.1
20240518153032 70 360 4.3 10.4 0.00 0.19 0.19 75 1012.1
20240518151522 69 360 4.3 10.4 0.00 0.19 0.19 78 1011.9
20240518150020 68 360 5.2 10.4 0.00 0.19 0.19 77 1012.0
20240518144519 67 360 5.2 12.2 0.00 0.19 0.19 78 1012.2
20240518143022 67 360 7.0 10.4 0.00 0.19 0.19 78 1012.3
20240518141517 68 360 4.3 9.6 0.01 0.19 0.19 79 1012.4
20240518140037 68 360 6.1 9.6 0.08 0.19 0.19 79 1012.5
20240518134514 67 360 3.5 8.7 0.08 0.19 0.19 79 1012.6
20240518133010 65 360 2.6 8.7 0.08 0.19 0.19 78 1012.7
20240518131508 64 360 6.1 16.5 0.06 0.17 0.17 77 1012.6
20240518130008 65 360 5.2 13.0 0.00 0.11 0.11 78 1012.4
20240518124506 64 360 7.8 11.3 0.00 0.11 0.11 76 1012.5
20240518123001 63 360 4.3 8.7 0.04 0.11 0.11 76 1012.6
20240518121503 63 360 3.5 9.6 0.10 0.11 0.11 75 1012.7
20240518120101 63 360 5.2 9.6 0.11 0.11 0.11 74 1012.4
20240518114559 63 360 6.1 9.6 0.11 0.11 0.11 73 1012.5
20240518113117 63 360 3.5 7.8 0.07 0.07 0.07 73 1013.0
20240518111556 63 360 7.0 10.4 0.01 0.01 0.01 73 1012.7
20240518110054 63 360 3.5 10.4 0.00 0.00 0.00 73 1012.7
20240518104600 62 360 5.2 9.6 0.00 0.00 0.00 74 1012.5
20240518103051 62 360 4.3 8.7 0.00 0.00 0.00 73 1012.5
20240518101553 61 360 1.7 4.3 0.00 0.00 0.00 73 1012.6
20240518100100 60 360 0.9 4.3 0.00 0.00 0.00 73 1012.5
20240518094549 60 360 2.6 5.2 0.00 0.00 0.00 73 1012.1
20240518093048 60 360 2.6 5.2 0.00 0.00 0.00 73 1012.0
20240518091547 60 360 1.7 5.2 0.00 0.00 0.00 73 1012.0
20240518090052 60 360 1.7 5.2 0.00 0.00 0.00 72 1012.0
20240518084547 60 360 1.7 5.2 0.00 0.00 0.00 72 1012.1
20240518083042 61 360 0.9 2.6 0.00 0.00 0.00 72 1012.2
20240518081541 61 360 1.7 4.3 0.00 0.00 0.00 72 1012.3
20240518080039 61 360 0.0 3.5 0.00 0.00 0.00 72 1012.5
20240518074542 61 360 1.7 3.5 0.00 0.00 0.00 72 1012.6
20240518073035 61 360 0.0 2.6 0.00 0.00 0.00 71 1012.7
20240518071535 61 360 0.0 3.5 0.00 0.00 0.00 71 1012.8
20240518070036 61 360 1.7 3.5 0.00 0.00 0.00 71 1012.7
20240518064537 61 360 0.9 3.5 0.00 0.00 0.00 70 1012.8
20240518063027 61 360 0.9 2.6 0.00 0.00 0.00 70 1013.0
20240518061526 61 360 2.6 5.2 0.00 0.00 0.00 70 1013.2
20240518060030 62 360 1.7 3.5 0.00 0.00 0.00 70 1013.3
20240518054524 62 360 0.0 0.0 0.00 0.00 0.00 70 1013.6
20240518053025 62 360 0.0 0.0 0.00 0.00 0.00 70 1013.5
20240518051524 62 360 0.0 2.6 0.00 0.00 0.00 70 1013.5
20240518050023 62 360 0.0 0.9 0.00 0.00 0.00 70 1013.6
20240518044519 62 360 0.0 0.0 0.00 0.00 0.00 70 1013.4
20240518043019 62 360 0.0 0.0 0.00 0.00 0.00 70 1013.5
20240518041527 62 360 2.6 4.3 0.00 0.00 0.00 70 1013.2
20240518040014 62 360 1.7 3.5 0.00 0.00 0.00 69 1013.6
20240518034513 62 360 0.9 2.6 0.00 0.00 0.00 70 1013.7
20240518033014 62 360 0.0 4.3 0.00 0.00 0.00 70 1013.7
20240518031511 62 360 3.5 7.0 0.00 0.00 0.00 69 1013.5
20240518030009 62 360 0.9 3.5 0.00 0.00 0.00 69 1013.6
20240518024510 62 360 1.7 5.2 0.00 0.00 0.00 69 1013.4
20240518023021 62 360 1.7 4.3 0.00 0.00 0.00 69 1013.4
20240518021506 62 360 1.7 10.4 0.00 0.00 0.00 69 1013.4
20240518020005 61 360 4.3 7.8 0.00 0.00 0.00 69 1013.3
20240518014504 62 360 4.3 9.6 0.00 0.00 0.00 69 1013.1
20240518013002 62 360 4.3 11.3 0.00 0.00 0.00 69 1013.0
20240518011604 62 360 4.3 10.4 0.00 0.00 0.00 69 1013.0
20240518010103 62 360 3.5 9.6 0.00 0.00 0.00 68 1013.2
20240518004603 63 360 5.2 10.4 0.00 0.00 0.00 68 1013.2
20240518003108 63 360 2.6 7.8 0.00 0.00 0.00 68 1013.2
20240518001606 63 360 1.7 7.8 0.00 0.00 0.00 68 1013.2
20240518000100 64 360 1.7 7.0 0.00 0.00 0.00 68 1013.1
20240517234622 64 360 1.7 7.8 0.00 0.00 0.00 67 1013.2
20240517233053 64 360 4.3 10.4 0.00 0.00 0.00 67 1012.9
20240517231552 64 360 3.5 9.6 0.00 0.00 0.00 67 1012.9
20240517230152 65 360 5.2 10.4 0.00 0.00 0.00 67 1012.8
20240517224551 64 360 6.1 12.2 0.00 0.00 0.00 66 1012.7
20240517223050 65 360 2.6 11.3 0.00 0.00 0.00 66 1012.5
20240517221550 65 360 7.8 16.5 0.00 0.00 0.00 66 1011.8
20240517220051 65 360 6.1 13.9 0.00 0.00 0.00 66 1011.9
20240517214549 65 360 6.1 14.8 0.00 0.00 0.00 65 1012.5
20240517213048 65 360 4.3 10.4 0.00 0.00 0.00 65 1012.7
20240517211551 66 360 3.5 11.3 0.00 0.00 0.00 65 1012.8
20240517210047 66 360 7.0 13.9 0.00 0.00 0.00 64 1012.6
20240517204546 66 360 7.8 14.8 0.00 0.00 0.00 64 1012.6